Theta_e
337 339 345 348 349 348 348 346 346 345 344 343 344 344 343 342 343 344 345 345 347 346 346 346 345 343 340 339 338 336 336 334 335 333 335 332 332 332 333 330 329 327 331
338 339 344 348 350 349 348 346 346 345 345 343 344 343 341 341 343 344 345 344 345 345 346 345 342 340 339 337 337 334 334 334 335 335 333 334 332 331 333 329 331 332 332
337 338 344 346 349 348 347 346 346 345 344 344 342 341 340 339 343 343 344 344 345 346 346 343 341 339 337 336 335 333 333 334 336 332 330 324 323 330 332 329 330 334 330
338 337 342 344 347 347 346 346 346 345 344 342 341 340 339 338 341 343 344 343 345 346 344 342 340 338 336 335 334 332 331 330 331 332 322 323 323 328 330 330 333 332 332
336 335 340 344 346 346 346 345 345 344 344 342 339 337 337 337 339 342 343 343 344 344 343 341 339 337 335 334 332 330 329 330 332 325 319 319 320 326 330 328 328 329 328
336 337 341 344 346 346 345 344 343 343 343 341 339 337 338 338 338 340 342 342 343 342 341 338 337 335 334 333 331 329 329 329 328 319 319 324 320 328 328 327 326 325 326
336 340 341 342 344 345 345 343 343 342 343 342 341 340 338 339 339 340 341 341 342 342 339 337 336 334 333 331 329 328 326 329 319 318 320 320 321 328 326 326 324 325 324
336 338 340 336 339 340 342 342 340 339 340 340 340 341 339 340 340 340 341 341 341 341 338 336 335 334 332 331 328 327 327 326 320 318 318 318 325 326 325 325 325 327 326
335 337 336 336 333 332 334 335 336 336 337 339 340 339 338 339 340 341 341 341 340 340 338 335 334 332 330 329 327 327 324 325 316 319 320 318 324 325 325 324 324 325 324
334 334 333 331 329 330 330 330 332 334 336 336 336 334 333 334 335 335 334 338 340 339 339 337 335 333 330 328 327 326 323 322 317 318 318 320 326 324 323 323 322 322 322
332 332 332 329 328 328 329 328 329 331 331 330 330 328 328 334 334 332 330 335 338 338 337 337 335 333 330 327 325 323 322 319 320 319 318 325 324 323 322 321 321 320 321
328 328 330 329 327 327 330 328 331 332 331 331 330 330 332 332 331 330 324 327 332 333 335 336 333 329 324 322 318 320 319 319 319 318 317 325 324 321 321 320 320 320 319
329 328 328 328 326 327 326 327 331 330 329 330 329 328 331 332 330 330 325 327 327 327 330 331 328 324 323 322 318 318 322 319 319 318 318 324 324 322 321 319 318 317 317
327 327 328 329 328 326 327 326 331 331 331 331 329 326 329 330 329 328 326 326 327 328 328 329 327 324 324 324 322 322 321 319 317 317 316 321 324 322 321 320 319 318 317
315 324 327 328 328 327 323 325 328 328 330 330 329 328 325 325 325 327 326 327 326 327 327 326 326 327 326 325 324 321 319 320 320 318 315 317 322 325 323 322 320 319 319
312 312 318 329 328 328 325 323 326 328 327 329 329 329 328 325 326 325 325 325 324 325 326 326 325 324 322 322 321 321 320 320 320 319 318 318 321 325 325 324 323 323 320
308 310 311 319 330 328 328 327 327 325 326 326 329 328 328 326 325 324 324 325 324 321 322 324 323 322 321 322 320 322 320 320 319 319 318 317 317 320 322 325 325 324 324
304 306 309 311 319 325 327 329 329 329 327 325 326 326 326 326 325 323 322 323 324 320 320 320 319 318 317 319 318 319 320 318 319 319 319 319 318 317 318 323 324 324 324
302 303 305 307 307 313 320 323 329 329 328 328 328 326 325 325 325 322 323 322 323 320 318 318 317 317 315 315 315 314 314 314 315 316 316 318 318 316 315 319 320 321 324
300 301 302 305 306 307 313 324 327 327 328 328 327 326 326 324 323 322 323 322 323 321 318 317 315 315 314 313 314 310 310 312 312 312 313 315 315 315 315 315 314 313 317
299 299 299 300 302 305 306 312 322 319 324 326 325 325 325 325 324 322 321 321 323 321 320 319 316 313 312 312 309 308 309 311 310 310 311 311 312 313 313 313 312 312 313
297 298 298 299 300 302 304 305 310 315 324 326 326 325 325 325 325 324 323 322 321 320 319 320 318 313 313 311 307 305 302 305 308 309 309 310 309 310 311 311 311 311 311
295 296 297 298 298 300 302 304 307 315 323 324 324 324 324 325 325 324 324 323 321 321 320 319 319 317 313 311 310 307 302 300 303 304 304 306 307 307 308 309 309 309 309
295 295 296 297 297 299 301 301 302 304 308 317 322 324 325 324 324 324 323 323 322 322 321 320 319 319 316 312 310 311 308 307 302 301 302 302 303 305 305 305 306 307 308
294 294 294 295 296 297 298 299 300 301 304 307 311 323 324 324 324 324 323 323 322 322 321 321 320 319 318 315 310 308 307 309 309 306 304 306 303 303 303 305 307 306 307
292 292 292 293 294 295 296 296 298 299 301 302 306 309 319 322 323 323 323 323 323 322 321 321 321 320 319 317 315 312 310 308 307 307 305 305 305 307 307 307 307 308 308
Wind_Speed
12 14 14 15 17 19 19 18 16 15 14 14 14 13 13 11 10 10 9 11 10 13 16 18 22 21 20 20 20 21 20 20 19 18 19 19 19 18 19 19 15 11 18
16 15 14 15 17 18 18 17 16 14 14 14 15 13 13 11 11 10 9 6 11 13 18 21 21 20 21 20 20 19 19 19 17 16 17 17 18 16 17 17 15 14 19
16 14 13 14 15 17 18 18 15 14 15 14 13 12 11 10 12 10 9 8 13 19 21 22 21 20 20 19 18 17 16 15 15 19 13 6 8 16 18 17 15 16 16
15 13 12 12 16 17 18 17 16 14 15 14 12 12 10 9 11 11 10 8 16 22 23 22 20 19 18 18 17 14 11 7 5 7 6 8 11 15 15 15 16 15 18
15 12 11 15 16 16 16 16 15 15 15 13 11 9 9 8 10 11 11 9 17 21 21 21 20 19 18 17 16 11 7 5 10 11 8 8 6 12 16 16 14 17 16
13 14 12 15 16 16 15 14 16 15 14 12 10 10 10 9 8 10 10 10 16 20 20 19 19 17 16 16 13 9 6 6 10 9 9 11 6 13 15 13 14 13 15
11 14 13 15 14 14 15 15 13 13 13 12 9 9 7 9 6 10 10 11 16 19 20 18 18 17 15 14 11 7 2 3 7 7 9 6 7 13 15 12 14 13 11
13 12 12 13 12 12 13 13 12 12 12 10 8 9 6 7 6 9 11 11 15 18 19 18 17 17 15 12 8 2 7 9 9 10 8 5 10 12 13 12 12 10 13
8 11 10 9 10 11 10 11 12 11 9 8 9 8 8 10 9 10 10 11 14 17 19 17 17 15 15 11 6 4 4 6 7 7 9 4 9 11 10 12 10 11 11
7 8 12 9 8 6 7 10 9 10 10 10 9 7 9 10 9 10 9 9 12 17 18 17 15 14 15 11 5 1 1 6 5 9 5 4 8 10 9 8 10 8 9
4 5 7 11 9 8 7 7 8 9 10 11 7 8 8 5 5 6 9 10 9 13 16 17 14 13 12 9 5 2 6 0 5 7 4 5 9 8 7 7 7 7 6
7 5 5 8 9 9 8 7 6 7 5 5 6 6 4 5 5 8 8 10 8 10 13 16 15 14 9 3 2 3 2 3 4 6 4 6 7 5 7 5 5 5 5
8 4 5 6 6 9 8 5 3 4 4 5 7 6 6 4 4 5 3 3 4 7 4 7 8 4 5 4 4 4 2 3 3 5 6 7 6 6 6 5 3 2 3
8 7 5 6 4 8 5 5 5 4 4 4 5 5 7 4 4 3 3 4 5 4 6 5 3 4 5 5 6 3 4 1 2 4 4 8 6 6 5 6 4 3 1
14 9 9 6 6 5 6 5 4 5 4 5 4 3 4 5 5 3 3 3 4 4 5 5 5 4 3 5 3 4 4 3 5 3 3 9 8 7 6 6 5 5 4
12 12 17 6 5 4 5 6 3 5 5 5 4 4 3 5 5 3 3 3 4 3 4 4 4 4 4 2 3 2 0 2 1 1 3 4 9 8 8 8 7 8 6
15 17 17 16 5 4 5 5 4 5 5 4 5 6 6 4 6 6 3 2 4 1 3 4 4 4 4 3 1 4 2 2 1 3 3 4 5 9 10 11 12 11 11
10 15 14 13 12 6 5 1 3 2 4 4 4 5 6 5 5 5 4 3 4 3 2 2 3 1 1 3 3 4 3 1 3 4 3 3 3 4 8 12 13 13 13
12 10 11 11 15 10 9 10 4 4 3 4 4 4 7 6 7 5 4 3 3 4 3 3 2 3 3 2 2 0 1 2 2 2 5 5 5 4 3 6 12 13 14
9 6 5 8 11 12 4 7 4 1 2 3 4 3 7 6 7 6 5 5 3 3 2 2 3 2 2 3 2 2 2 3 4 5 5 4 5 6 5 6 4 4 10
9 10 11 10 10 8 7 6 2 4 2 2 4 5 4 4 6 6 5 6 7 6 5 5 3 4 3 2 3 2 4 6 6 5 5 5 6 6 6 5 4 3 4
10 8 8 9 8 7 5 4 3 5 2 2 6 5 5 5 4 3 4 4 5 5 5 6 5 2 3 4 3 0 3 4 3 5 4 5 6 4 5 5 6 6 6
11 10 10 8 8 6 7 6 6 4 4 2 5 6 9 10 9 9 8 5 4 5 5 5 5 6 4 2 6 3 1 3 2 2 3 3 5 4 5 6 6 6 7
10 9 10 9 8 7 7 6 8 5 5 5 3 5 6 11 12 12 10 10 10 5 6 6 7 6 5 5 2 5 4 1 1 4 2 4 5 6 6 5 5 6 7
10 10 10 11 10 8 7 7 6 5 5 6 6 5 7 8 10 10 11 11 11 8 9 9 8 8 7 5 4 3 4 4 4 4 7 4 1 4 5 6 6 6 8
7 9 8 9 9 10 10 9 8 8 7 7 7 5 4 5 6 9 9 9 8 8 8 7 7 10 9 8 5 4 4 3 4 5 7 7 5 4 6 5 6 7 5
Wind_Direction
144 142 149 152 149 145 139 133 133 131 132 124 116 108 104 97 82 77 95 153 144 130 128 115 104 100 99 94 93 91 91 88 88 83 81 77 79 70 74 73 72 73 80
137 146 148 149 150 148 137 137 135 139 135 130 122 114 110 105 88 74 76 107 153 129 117 109 104 106 99 98 98 98 103 104 101 88 69 77 77 72 82 77 83 79 83
133 141 144 149 147 144 139 139 137 136 130 125 121 116 106 100 90 85 68 79 135 117 116 109 109 105 106 103 103 106 112 116 115 102 97 86 82 72 73 76 83 80 78
133 145 141 133 134 137 138 139 139 138 131 127 119 115 109 106 94 82 74 84 120 121 113 112 110 110 108 107 110 110 108 113 119 119 86 72 77 80 73 74 64 73 73
132 148 135 131 135 134 134 137 138 136 129 127 125 119 116 116 106 88 81 103 117 115 112 112 112 112 112 113 113 113 110 64 81 74 74 73 64 74 72 75 59 68 68
145 129 129 132 137 137 135 135 138 135 128 129 127 126 120 117 110 95 88 116 122 117 115 116 114 116 116 115 121 124 81 17 74 83 83 79 84 85 78 78 73 70 66
119 125 135 136 135 135 136 136 134 130 127 128 127 124 122 120 105 108 97 113 127 119 119 119 119 118 116 117 121 104 50 91 89 87 81 66 80 84 82 87 78 86 83
121 133 135 128 128 130 138 139 128 115 118 117 122 120 127 133 112 118 106 109 130 125 124 123 121 120 118 118 119 105 31 9 88 89 83 74 82 79 82 75 82 80 79
120 127 130 132 129 124 125 120 115 121 119 114 107 108 110 105 97 107 105 109 138 132 128 128 125 123 122 124 122 65 21 2 82 111 106 89 93 93 85 91 77 82 77
129 141 143 142 142 128 127 115 116 121 111 104 102 113 123 117 108 110 103 101 128 137 133 126 127 128 127 127 121 208 359 69 102 90 86 90 92 95 92 81 86 75 89
153 140 154 148 157 149 133 140 129 123 118 115 112 129 134 121 116 105 97 94 108 141 135 128 129 123 114 123 152 264 326 239 91 100 97 99 107 98 94 95 82 89 79
152 158 143 161 165 150 154 147 154 137 145 147 137 163 141 130 105 100 93 89 90 135 135 132 128 126 126 144 158 278 289 72 91 112 119 137 122 119 112 103 98 90 85
156 165 142 157 149 161 141 158 145 153 160 149 153 176 136 119 125 117 125 125 118 124 124 118 126 151 163 164 162 225 211 21 81 125 144 150 157 152 141 137 129 107 108
180 176 172 176 189 165 148 148 154 146 152 137 166 153 130 134 134 142 157 154 139 142 142 140 146 187 204 173 178 195 118 4 61 112 163 167 190 183 184 175 178 178 195
12 330 182 175 199 187 138 146 151 139 141 135 139 121 126 128 131 126 84 133 135 127 146 162 173 184 154 226 142 107 165 208 152 139 171 183 196 221 217 210 206 214 219
28 357 360 242 181 225 157 156 181 145 155 134 137 143 137 123 122 135 118 148 114 136 158 163 167 160 167 149 155 180 142 80 71 160 120 183 188 216 245 252 241 235 249
2 11 26 344 231 219 173 186 168 145 145 133 146 156 149 126 144 153 154 93 133 120 100 128 148 153 164 160 180 187 130 277 290 253 229 184 208 209 216 242 256 255 249
10 25 350 5 16 26 355 266 190 152 146 149 144 144 151 162 152 135 161 174 141 117 113 108 122 102 159 164 200 221 159 249 243 261 292 266 217 206 230 230 235 249 261
33 27 347 25 4 8 1 326 256 190 173 151 146 148 159 175 159 155 170 172 166 146 179 177 159 160 181 212 201 37 130 180 251 266 249 249 249 251 249 238 235 239 242
52 24 351 41 15 356 319 224 50 341 308 143 152 173 167 177 166 166 155 173 173 150 188 198 160 188 167 191 192 152 256 250 227 219 234 247 241 242 242 243 247 240 239
24 11 11 18 20 8 353 351 91 237 184 161 188 185 198 179 168 178 162 181 163 180 188 189 185 180 220 86 76 325 268 240 236 221 219 226 234 234 234 227 228 235 243
18 5 6 23 23 7 5 337 292 298 255 203 167 174 202 190 183 159 163 184 185 176 190 193 171 189 186 160 162 123 306 316 268 233 219 228 235 236 247 244 237 236 242
18 2 356 5 17 14 354 338 330 279 240 145 199 180 199 192 184 188 191 188 211 179 187 190 174 179 199 182 193 171 179 246 316 346 251 246 243 238 247 242 241 235 239
14 4 358 355 8 4 354 345 352 341 321 360 262 196 188 199 191 199 199 203 207 204 204 198 193 190 168 190 177 234 249 222 175 316 282 238 234 232 236 248 238 237 236
8 8 0 353 351 357 355 348 340 329 327 316 329 260 192 192 198 203 208 206 207 206 212 211 193 201 208 198 164 159 220 239 219 222 281 264 270 233 230 237 236 231 230
5 8 355 358 348 351 347 340 334 331 329 333 332 318 312 200 201 209 206 211 208 210 207 203 202 200 208 212 199 179 173 180 199 205 232 264 257 251 221 234 241 245 233